Time,TemperatureF,DewpointF,PressureIn,WindDirection,WindDirectionDegrees,WindSpeedMPH,WindSpeedGustMPH,Humidity,HourlyPrecipIn,Conditions,Clouds,dailyrainin,SoftwareType,DateUTC
2013-02-01 00:00:00,36.2,28.4,24.26,North,0,0.0,-999.0,73,0.00,,,0.00,,2013-02-01 08:00:00,
2013-02-01 01:00:00,36.2,28.4,24.25,North,0,0.0,-999.0,73,0.00,,,0.00,,2013-02-01 09:00:00,
2013-02-01 02:00:00,36.0,28.2,24.26,North,0,0.0,-999.0,73,0.00,,,0.00,,2013-02-01 10:00:00,
2013-02-01 03:00:00,35.6,27.8,24.26,North,0,0.0,-999.0,73,0.00,,,0.00,,2013-02-01 11:00:00,
2013-02-01 04:00:00,35.6,27.8,24.25,North,0,0.0,-999.0,73,0.00,,,0.00,,2013-02-01 12:00:00,
2013-02-01 05:00:00,35.6,27.8,24.25,North,0,0.0,-999.0,73,0.00,,,0.00,,2013-02-01 13:00:00,
2013-02-01 06:00:00,35.6,27.8,24.25,North,0,0.0,-999.0,73,0.00,,,0.00,,2013-02-01 14:00:00,
2013-02-01 07:07:00,35.8,27.6,24.25,North,0,0.0,-999.0,72,0.00,,,0.00,,2013-02-01 15:07:00,
2013-02-01 08:00:00,37.1,28.6,24.26,North,0,0.0,-999.0,71,0.00,,,0.00,,2013-02-01 16:00:00,
2013-02-01 09:07:00,41.9,31.8,24.26,North,0,0.0,-999.0,67,0.00,,,0.00,,2013-02-01 17:07:00,
2013-02-01 10:00:00,45.7,32.7,24.28,North,0,0.0,-999.0,60,0.00,,,0.00,,2013-02-01 18:00:00,
2013-02-01 11:07:00,50.2,32.4,24.28,North,0,0.0,-999.0,50,0.00,,,0.00,,2013-02-01 19:07:00,
2013-02-01 12:00:00,53.8,31.7,24.26,North,0,0.0,-999.0,43,0.00,,,0.00,,2013-02-01 20:00:00,
2013-02-01 13:07:00,59.0,34.0,24.26,North,0,0.0,-999.0,39,0.00,,,0.00,,2013-02-01 21:07:00,
2013-02-01 14:00:00,55.4,32.0,24.22,North,0,0.0,-999.0,41,0.00,,,0.00,,2013-02-01 22:00:00,
2013-02-01 15:06:00,54.4,31.7,24.22,North,0,0.0,-999.0,42,0.00,,,0.00,,2013-02-01 23:06:00,
2013-02-01 16:00:00,52.2,36.0,24.24,North,0,0.0,-999.0,54,0.00,,,0.00,,2013-02-02 00:00:00,
2013-02-01 17:06:00,48.4,37.5,24.24,North,0,0.0,-999.0,66,0.00,,,0.00,,2013-02-02 01:06:00,
2013-02-01 18:00:00,44.1,34.6,24.28,North,0,0.0,-999.0,69,0.00,,,0.00,,2013-02-02 02:00:00,
2013-02-01 19:00:00,42.5,32.0,24.30,North,0,0.0,-999.0,66,0.00,,,0.00,,2013-02-02 03:00:00,
2013-02-01 20:00:00,40.9,29.6,24.32,North,0,0.0,-999.0,64,0.00,,,0.00,,2013-02-02 04:00:00,
2013-02-01 21:00:00,40.0,29.4,24.32,North,0,0.0,-999.0,66,0.00,,,0.00,,2013-02-02 05:00:00,
2013-02-01 22:00:00,39.4,28.9,24.32,North,0,0.0,-999.0,66,0.00,,,0.00,,2013-02-02 06:00:00,
2013-02-01 23:00:00,39.2,28.4,24.32,North,0,0.0,-999.0,65,0.00,,,0.00,,2013-02-02 07:00:00,